{"data":{"norad_id":52649,"intl_designator":"2022-052BD","name":"STARLINK-3868","alt_names":[],"object_type":"PAYLOAD","status":"ACTIVE","operator":null,"country":"US","launch_date":"2022-05-14","launch_site_code":"AFETR","launch_vehicle":null,"mission":null,"orbit_class":"UNKNOWN","rcs_meters":null,"size_class":null,"mass_kg":null,"dimensions":null,"purposes":["comms"],"wikipedia_slug":null,"has_3d_model":false,"image_url":null,"decayed_at":null,"tle_current":{"epoch":"2026-05-24T17:42:45.830880Z","epoch_age_seconds":106666,"freshness":"FRESH","line1":"1 52649U 22052BD  26144.73803045  .00000176  00000+0  29137-4 0  9993","line2":"2 52649  53.2147 277.5780 0001310  93.6623 266.4519 15.08836151222625","mean_motion":15.08836151,"eccentricity":0.000131,"inclination_deg":53.2147,"raan_deg":277.578,"arg_perigee_deg":93.6623,"mean_anomaly_deg":266.4519,"bstar":2.9137e-5,"rev_number":22262,"period_min":95.437798136373,"perigee_km":538.84890997014,"apogee_km":540.66139771445,"semimajor_km":6917.8921538423,"source":"CELESTRAK","updated_at":"2026-05-25T13:38:17.208452Z"}}}